Find Starlink 31870

NORAD ID: 59787 Int'l Des: 2024-093 Owner: SPXS Country: US Constellation: starlink operational
LEOCIRCULAR

Current View

Loading 3D Globe...

About Starlink 31870

Starlink 31870 (NORAD 59787) is a starlink constellation satellite (v2 mini) launched May 18, 2024 by SPXS of US. It operates in LEO, CIRCULAR orbit with a mass of 730.00 kg.

About Starlink 31870

Description loading...

Upcoming Passes

Passes for default location (London). Set your location on the main map for personalized predictions.

Altitude History

Loading altitude history...

Two-Line Element Set

1 59787U 24093F 26175.68647597 -.00001012 00000-0 -27262-4 0 9996
2 59787 43.0013 324.2554 0001311 271.9449 88.1252 15.27590599119061
Epoch: Jun 24, 2026 • Age: 28 hours

Current Status

Altitude 489.1 km
Velocity 7.62 km/s
Sub-Earth Point -26.83°S, 62.87°E
Launch Date May 18, 2024
Age 2.1 years
Type internet

Technical Details

Classification Payload
Mass 730.00 kg
Dry Mass 700.00 kg
Total Mass 730.00 kg
Length 0.30 m
Diameter 4.10 m
Span 29.00 m
Shape Box + pan
Manufacturer SPXS
Bus Type Starlink V2M
Phase Status In Orbit
Owner/State SPXS/US

Most Searched